Погода в Лебедине

Украина / Сумская область     50°34′35″N   34°29′11″E
темп.,
°C
ветер,
м/с
пор.,
м/с
влажн.,
%
обл.,
%
осадки,
мм/ч
давл.,
гПа
погр.,
м
4 августа, ср
ср400:00+20с125694 0.0 101518
03:00+17сз226551 0.0 101624
06:00+16ссз35700 0.0 1017103
09:00+22ссз34470 0.0 1018585
12:00+25сз453130 0.0 10182283
15:00+26сз343017 0.0 10172465
18:00+26с23328 0.0 10172156
21:00+22в224053 0.0 101729
5 августа, чт
чт500:00+19юв224483 0.0 101716
03:00+17юв345075 0.0 101756
06:00+16юв475137 0.0 1017117
09:00+23ююв694078 0.0 1016494
12:00+28ю663298 0.0 10152068
15:00+30ююз6729100 0.0 10132860
18:00+22с355257 0.0 1013119
21:00+21вюв475539 0.1 101299
6 августа, пт
пт600:00+22ююв5144659 0.0 1011312
03:00+18ююв3864100 0.7 1011123
06:00+19ююв5135923 0.1 1010249
09:00+26ююв574080 0.1 1009420
12:00+31ююв562774 0.0 10081408
15:00+34ю572130 0.0 10062490
18:00+34ю572797 0.0 10052120
21:00+24ю2265100 3.0 100624
7 августа, сб
сб700:00+23вюв456910 0.3 100663
03:00+20вюв4879100 1.3 1006142
06:00+18ююв2591100 2.9 1007125
09:00+22в4982100 4.5 1007302
12:00+25юв6863100 0.6 1007739
15:00+25вюв4662100 1.9 1007862
18:00+25вюв1363100 1.2 1007408
21:00+20всв2286100 2.5 100826
8 августа, вс
вс800:00+19вюв3694100 3.8 1009153
03:00+19сз1194100 5.1 100919
06:00+18с239799 0.0 100997
09:00+22ссз338238 0.0 1010501
12:00+25сз556578 0.1 10111161
15:00+26ссз675861 0.1 10121391
18:00+26сз564910 0.0 10131738
21:00+20ссз3562100 0.0 101568